Location: Perryvale
(54.4667°N, 113.3833°W)
Time: 22:56:24
(UTC+00:00)

Vanguard 1 - Pass Details

Date: 28 May 2024
Orbit: 652 x 3825 km, 34.2° (Epoch: 13 June)

Event Time Altitude Azimuth Distance (km) Brightness Sun altitude
Rises 05:20:12 0° 247° (WSW) 4,594 13.6 -9.0°
Reaches altitude 10° 05:23:17 10° 236° (SW) 3,983 13.1 -9.2°
Maximum altitude 05:32:25 30° 181° (S) 3,655 12.5 -9.9°
Drops below altitude 10° 05:46:33 10° 131° (SE) 6,238 13.6 -10.8°
Sets 05:53:05 0° 123° (ESE) 7,634 14.1 -11.1°
